Blythe, CA

6:18 AM PDT on April 23, 2017 (GMT -0700)
Blythe

Weather History for KBLH - March, 2013

Change the Weather History Date:

Monday, March 11, 2013

  Actual Average Record
Temperature  
Mean Temperature 64 °F -  
Max Temperature 81 °F 76 °F 93 °F (1997)
Min Temperature 46 °F 49 °F 42 °F (1970)
Degree Days  
Heating Degree Days 2    
Growing Degree Days 14 (Base 50)    
Moisture  
Dew Point 25 °F    
Average Humidity 24    
Maximum Humidity 39    
Minimum Humidity 11    
Precipitation  
Precipitation 0.00 in - - ()
Sea Level Pressure  
Sea Level Pressure 30.09 in    
Wind  
Wind Speed 4 mph (NNW)    
Max Wind Speed 10 mph    
Max Gust Speed 17 mph    
Visibility 10 miles    
Events      
Averages and records for this station are not official NWS values.
T = Trace of Precipitation, MM = Missing Value Source: NWS Daily Summary

Daily Weather History Graph

Daily Weather History Graph

Search for Another Location

Airport or City:

Trip Planner

Search our weather history database for the weather conditions in past years. The results will help you decide how hot, cold, wet, or windy it might be!

Date:

Astronomy

Mar. 11, 2013 Rise Set
Actual Time 6:54 AM PDT 6:43 PM PDT
Civil Twilight 6:29 AM PDT 7:08 PM PDT
Nautical Twilight 6:00 AM PDT 7:37 PM PDT
Astronomical Twilight 5:31 AM PDT 8:06 PM PDT
Moon 6:31 AM PDT (3/11) 6:57 PM PDT (3/11)
Length of Visible Light 12h 39m
Length of Day
11h 49m
Waning Crescent, 0% of the Moon is Illuminated
Mar 11
Waning Crescent
Mar 11
New
Mar 19
First Quarter
Mar 27
Full
Apr 2
Last Quarter

Hourly Weather History & Observations

Time (PDT) Temp. Dew Point Humidity Pressure Visibility Wind Dir Wind Speed Gust Speed Precip Events Conditions
12:52 AM 57.0 °F 21.9 °F 26% 30.14 in 10.0 mi Variable 3.5 mph - N/A   Clear
1:52 AM 55.0 °F 19.9 °F 25% 30.14 in 10.0 mi SW 6.9 mph - N/A   Clear
3:52 AM 50.0 °F 21.9 °F 33% 30.13 in 10.0 mi Variable 4.6 mph - N/A   Clear
4:52 AM 48.0 °F 23.0 °F 37% 30.13 in 10.0 mi NNW 6.9 mph - N/A   Clear
5:52 AM 46.9 °F 23.0 °F 39% 30.14 in 10.0 mi North 6.9 mph - N/A   Clear
6:52 AM 51.1 °F 21.9 °F 32% 30.15 in 10.0 mi SSW 3.5 mph - N/A   Clear
7:52 AM 51.1 °F 25.0 °F 36% 30.16 in 10.0 mi Calm Calm - N/A   Clear
8:52 AM 59.0 °F 23.0 °F 25% 30.17 in 10.0 mi Calm Calm - N/A   Clear
9:52 AM 63.0 °F 25.0 °F 24% 30.18 in 10.0 mi Calm Calm - N/A   Clear
10:52 AM 68.0 °F 25.0 °F 20% 30.17 in 10.0 mi Calm Calm - N/A   Clear
11:52 AM 73.0 °F 27.0 °F 18% 30.15 in 10.0 mi Variable 4.6 mph - N/A   Clear
12:52 PM 75.9 °F 26.1 °F 16% 30.12 in 10.0 mi South 4.6 mph - N/A   Clear
1:52 PM 80.1 °F 26.1 °F 14% 30.07 in 10.0 mi NNE 9.2 mph 17.3 mph N/A   Clear
2:52 PM 80.1 °F 26.1 °F 14% 30.05 in 10.0 mi NNW 10.4 mph - N/A   Clear
3:52 PM 81.0 °F 25.0 °F 13% 30.02 in 10.0 mi North 6.9 mph - N/A   Clear
4:52 PM 81.0 °F 24.1 °F 12% 30.00 in 10.0 mi NNE 6.9 mph - N/A   Clear
5:52 PM 80.1 °F 21.0 °F 11% 29.99 in 10.0 mi North 4.6 mph - N/A   Clear
6:52 PM 73.9 °F 26.1 °F 17% 29.98 in 10.0 mi SSE 3.5 mph - N/A   Clear
7:52 PM 71.1 °F 30.9 °F 23% 29.99 in 10.0 mi SSW 3.5 mph - N/A   Clear
8:52 PM 66.9 °F 30.9 °F 26% 30.01 in 10.0 mi Calm Calm - N/A   Clear
9:52 PM 62.1 °F 28.0 °F 28% 30.02 in 10.0 mi NNW 4.6 mph - N/A   Clear
10:52 PM 57.0 °F 24.1 °F 28% 30.03 in 10.0 mi North 4.6 mph - N/A   Clear
11:52 PM 62.1 °F 26.1 °F 25% 30.02 in 10.0 mi WSW 4.6 mph - N/A   Clear